FW7911 Weather Reports


time (UTC)temp
C
wind
direction
speed
KPH
gust
KPH
rain 1hr
cm
rain 24hr
cm
rain mn
cm
humidity
%
barometer
mb
20260507144113 15 332 9.7 16.1 0.00 1.57 0.58 71 1014.6
20260507143113 15 38 11.3 17.7 0.00 1.57 0.58 71 1014.7
20260507142113 16 12 6.4 9.7 0.00 1.57 0.58 72 1014.6
20260507141113 16 9 8.0 12.9 0.00 1.57 0.58 74 1014.6
20260507140113 15 17 6.4 12.9 0.00 1.57 0.58 72 1014.7
20260507135113 16 18 4.8 11.3 0.00 1.60 0.58 73 1014.7
20260507134113 15 26 8.0 12.9 0.00 1.60 0.58 74 1014.9
20260507133113 15 346 8.0 11.3 0.00 1.60 0.58 73 1014.9
20260507131113 15 29 8.0 16.1 0.00 1.60 0.58 76 1014.9
20260507130112 15 60 9.7 20.9 0.00 1.60 0.58 78 1014.9
20260507125112 15 33 8.0 19.3 0.00 1.63 0.58 78 1014.8
20260507124112 14 53 8.0 12.9 0.00 1.63 0.58 84 1014.8
20260507123112 13 10 9.7 16.1 0.00 1.63 0.58 82 1014.8
20260507122112 13 20 8.0 16.1 0.00 1.63 0.58 83 1014.7
20260507121112 13 19 9.7 16.1 0.00 1.63 0.58 84 1014.7
20260507120112 13 30 8.0 12.9 0.00 1.63 0.58 83 1014.8
20260507115112 14 31 11.3 17.7 0.00 1.65 0.58 81 1014.7
20260507114112 14 355 11.3 17.7 0.00 1.65 0.58 80 1014.7
20260507113112 15 308 3.2 9.7 0.00 1.65 0.58 70 1014.7
20260507112112 15 325 3.2 6.4 0.00 1.65 0.58 72 1014.7
20260507111112 14 299 3.2 8.0 0.00 1.65 0.58 73 1014.8
20260507110112 14 284 4.8 9.7 0.00 1.65 0.58 73 1015.0
20260507105111 14 278 3.2 11.3 0.00 1.68 0.58 76 1014.9
20260507103111 14 282 4.8 9.7 0.00 1.68 0.58 79 1014.9
20260507102111 14 290 3.2 8.0 0.00 1.68 0.58 79 1014.9
20260507101111 14 291 4.8 9.7 0.00 1.68 0.58 79 1015.0
20260507100111 13 265 3.2 9.7 0.00 1.68 0.58 81 1014.8
20260507095111 13 256 4.8 8.0 0.00 1.68 0.58 80 1014.9
20260507094111 13 254 3.2 4.8 0.00 1.68 0.58 80 1014.9
20260507093111 13 273 4.8 12.9 0.00 1.68 0.58 81 1014.9
20260507092111 13 208 6.4 11.3 0.00 1.68 0.58 81 1014.9
20260507091111 13 214 3.2 9.7 0.00 1.68 0.58 83 1014.7
20260507090111 12 269 8.0 9.7 0.00 1.68 0.58 84 1014.7
20260507085111 12 180 4.8 9.7 0.00 1.68 0.58 86 1014.5
20260507084111 12 265 3.2 8.0 0.00 1.68 0.58 85 1014.6
20260507083110 11 275 0.0 8.0 0.00 1.68 0.58 87 1014.6
20260507082111 11 224 3.2 8.0 0.00 1.68 0.58 88 1014.6
20260507081110 11 232 4.8 9.7 0.00 1.68 0.58 88 1014.7
20260507080110 11 289 3.2 9.7 0.00 1.68 0.58 90 1014.6
20260507075110 11 270 3.2 6.4 0.00 1.68 0.58 90 1014.6
20260507073110 11 304 1.6 8.0 0.00 1.68 0.58 91 1014.4
20260507071110 10 280 1.6 6.4 0.00 1.68 0.58 90 1014.3
20260507070111 10 256 4.8 9.7 0.00 1.68 0.58 91 1014.3
20260507065111 10 282 1.6 8.0 0.03 1.68 0.58 92 1014.2
20260507064111 10 209 3.2 8.0 0.03 1.68 0.58 92 1014.2
20260507063110 10 205 3.2 8.0 0.03 1.68 0.58 92 1014.2
20260507062110 10 277 4.8 8.0 0.05 1.68 0.58 92 1014.1
20260507061109 10 310 1.6 8.0 0.05 1.68 0.58 93 1013.9
20260507060109 10 285 4.8 4.8 0.05 1.68 0.58 93 1013.9
20260507055109 10 243 3.2 8.0 0.03 1.65 0.56 93 1013.8
20260507054109 10 292 1.6 8.0 0.03 1.65 0.56 93 1013.7
20260507053109 10 275 3.2 8.0 0.03 1.65 0.56 93 1013.6
20260507052109 10 273 4.8 9.7 0.00 1.65 0.53 93 1013.4
20260507050109 10 258 3.2 11.3 0.00 1.65 0.53 92 1013.1
20260507045109 10 254 4.8 12.9 0.00 1.65 0.53 92 1012.9
20260507044109 10 255 1.6 8.0 0.00 1.65 0.53 93 1012.9
20260507043110 10 306 4.8 9.7 0.03 1.65 0.53 93 1012.9
20260507042108 10 171 3.2 11.3 0.03 1.65 0.53 93 1012.7
20260507041108 10 287 1.6 8.0 0.05 1.65 0.53 93 1012.7
20260507040109 10 286 3.2 9.7 0.05 1.65 0.53 93 1012.8
20260507035109 10 251 3.2 9.7 0.05 1.65 0.53 93 1012.7
20260507034109 10 229 3.2 9.7 0.08 1.65 0.53 93 1012.7
20260507033109 10 240 4.8 16.1 0.08 1.63 0.51 93 1012.7
20260507031113 10 184 4.8 11.3 0.13 1.60 0.51 93 1012.5
20260507030113 10 161 8.0 20.9 0.15 1.60 0.51 93 1012.5
20260507025113 9 205 6.4 11.3 0.15 1.57 0.48 93 1012.3
20260507024113 9 205 6.4 12.9 0.15 1.55 0.46 93 1012.4
20260507023113 9 231 4.8 9.7 0.15 1.55 0.43 93 1012.4
20260507021113 9 211 8.0 20.9 0.15 1.47 0.38 93 1012.2
20260507020113 9 147 4.8 11.3 0.15 1.45 0.36 93 1011.9
20260507015112 9 239 4.8 11.3 0.10 1.42 0.33 93 1011.9
20260507014113 9 239 4.8 12.9 0.10 1.40 0.30 93 1011.6
20260507013113 9 235 6.4 16.1 0.08 1.37 0.28 93 1011.6
20260507012113 9 198 4.8 11.3 0.08 1.37 0.25 92 1011.6
20260507005112 9 153 4.8 16.1 0.08 1.32 0.23 92 1011.5
20260507004112 9 229 6.4 16.1 0.08 1.30 0.20 91 1011.5
20260507002112 10 287 4.8 19.3 0.10 1.27 0.18 91 1011.4
20260507001112 10 357 4.8 11.3 0.10 1.27 0.18 91 1011.5
20260507000112 10 258 4.8 11.3 0.10 1.27 0.15 91 1011.6
20260506235112 10 151 4.8 11.3 0.08 1.24 0.15 90 1011.6
20260506233112 10 178 11.3 20.9 0.08 1.19 0.10 90 1011.7
20260506232112 10 179 16.1 22.5 0.05 1.17 0.08 90 1011.7
20260506231112 10 237 11.3 22.5 0.08 1.17 0.08 90 1011.7
20260506230111 10 194 11.3 22.5 0.05 1.17 0.05 90 1011.7
20260506224111 10 172 12.9 19.3 0.05 1.14 0.05 90 1011.6
20260506221112 10 161 6.4 24.1 0.03 1.09 0.00 90 1011.6
20260506220111 10 212 6.4 12.9 0.03 1.09 0.00 90 1011.4
20260506215111 10 198 4.8 17.7 0.03 1.09 1.09 90 1011.3
20260506214111 10 162 9.7 24.1 0.03 1.09 1.09 90 1011.2
20260506212110 10 243 8.0 20.9 0.08 1.09 1.09 90 1011.1
20260506211110 10 216 11.3 24.1 0.10 1.09 1.09 90 1011.1
20260506210110 10 263 14.5 25.7 0.15 1.09 1.09 91 1011.1
20260506205110 10 182 11.3 20.9 0.13 1.07 1.07 91 1011.0
20260506204110 10 267 11.3 19.3 0.15 1.07 1.07 91 1011.0
20260506203110 10 213 9.7 20.9 0.15 1.02 1.02 91 1011.0
20260506202110 10 256 4.8 9.7 0.15 0.99 0.99 91 1011.0
20260506201110 10 250 4.8 19.3 0.15 0.99 0.99 91 1011.0
20260506195110 10 253 4.8 9.7 0.15 0.94 0.94 91 1011.0
20260506194110 10 181 3.2 9.7 0.15 0.91 0.91 91 1010.8
20260506193109 10 146 9.7 19.3 0.15 0.89 0.89 90 1010.6
20260506192109 10 200 9.7 17.7 0.15 0.86 0.86 91 1010.4
20260506191109 10 194 8.0 17.7 0.18 0.84 0.84 91 1010.4
20260506190109 10 205 11.3 19.3 0.20 0.81 0.81 90 1010.3
20260506185110 10 290 12.9 20.9 0.20 0.79 0.79 91 1010.2
20260506184109 10 287 11.3 27.4 0.23 0.76 0.76 91 1010.2
20260506183109 10 209 9.7 19.3 0.23 0.74 0.74 91 1010.2
20260506182109 10 166 12.9 22.5 0.23 0.71 0.71 91 1010.1
20260506181109 10 274 12.9 24.1 0.23 0.66 0.66 92 1010.0
20260506180109 10 217 12.9 19.3 0.23 0.61 0.61 91 1009.8
20260506175109 11 161 9.7 17.7 0.20 0.61 0.58 92 1009.7
20260506174109 11 327 11.3 22.5 0.20 0.56 0.53 91 1009.5
20260506173114 11 186 6.4 11.3 0.23 0.51 0.51 91 1009.4
20260506172114 11 215 6.4 20.9 0.23 0.51 0.48 91 1009.3
20260506171114 11 194 9.7 20.9 0.23 0.46 0.43 91 1009.2
20260506170113 11 204 14.5 22.5 0.20 0.43 0.41 91 1009.2
20260506165114 11 298 14.5 22.5 0.20 0.41 0.38 90 1009.1
20260506164113 11 175 8.0 22.5 0.18 0.36 0.33 91 1009.1
20260506163113 11 242 6.4 16.1 0.15 0.30 0.28 90 1009.1
20260506162113 11 146 8.0 19.3 0.15 0.28 0.25 90 1009.0
20260506161113 11 171 9.7 20.9 0.13 0.23 0.23 90 1009.1
20260506160113 11 97 11.3 22.5 0.10 0.23 0.20 89 1009.1
20260506155113 11 203 11.3 19.3 0.08 0.20 0.18 89 1009.0
20260506153113 11 264 11.3 22.5 0.05 0.15 0.15 88 1008.8
20260506151113 11 206 14.5 27.4 0.00 0.13 0.10 86 1008.8
20260506150112 11 197 11.3 24.1 0.00 0.13 0.10 86 1008.7
20260506145113 11 271 11.3 27.4 0.03 0.13 0.10 86 1008.7